Location: ??????
(31.2056°N, 45.3906°E)
Time: 19:47:41
(UTC+00:00)

SL-8 R/B - Pass Details

Date: 09 April 2020
Orbit: 656 x 667 km, 48.4° (Epoch: 27 May)

Event Time Altitude Azimuth Distance (km) Brightness Sun altitude
Rises 16:45:32 0° 307° (NW) 2,977 8.5 -17.8°
Reaches altitude 10° 16:47:54 10° 303° (WNW) 2,063 7.4 -18.3°
Maximum altitude 16:52:35 60° 224° (SW) 750 4.0 -19.2°
Enters shadow 16:54:34 32° 158° (SSE) 1,110 4.5 -19.6°
